Starlink 32795

operational
NORAD ID: 63042 Int'l Des: 2025-034 Owner: SPXS Country: US Constellation: starlink
LEOCIRCULAR

Starlink 32795について

説明を読み込み中...

リアルタイム位置

3D地球を読み込み中...

次回通過

高度履歴

Altitude vs Time

uPlot chart will show altitude changes over time

軌道要素

1 63042U 25034P 25352.52870423 .00022247 00000-0 76075-3 0 9992
2 63042 53.1599 274.8999 0001196 90.9769 269.1369 15.30210414 46663
Epoch: Dec 18, 2025 • Age: 10 hours

現在のステータス

高度 480.7 km
速度 7.63 km/s
衛星直下点 -19.10°S, 35.34°E
打ち上げ日 Feb 18, 2025
運用期間 0.8 years
タイプ internet

技術仕様

分類 Payload
質量 730.00 kg
乾燥質量 700.00 kg
総質量 730.00 kg
長さ 0.30 m
直径 4.10 m
スパン 29.00 m
形状 Box + pan
製造者 SPXS
バスタイプ Starlink V2M
フェーズステータス In Orbit
所有者/国 SPXS/US

大規模コンステレーション

Loading constellations...